| time (UTC) | temp C | wind direction | speed KPH | gust KPH | rain 1hr cm | rain 24hr cm | rain mn cm | humidity % | barometer mb |
| 20260906064216 | 11 | 157 | 1.6 | 1.6 | 0.00 | 0.00 | 0.00 | 77 | 1111.0 |
| 20260906063716 | 11 | 247 | 0.0 | 0.0 | 0.00 | 0.00 | 0.00 | 79 | 1111.0 |
| 20260906062717 | 10 | 157 | 0.0 | 0.0 | 0.00 | 0.00 | 0.00 | 80 | 1111.0 |
| 20260906062215 | 10 | 337 | 0.0 | 0.0 | 0.00 | 0.00 | 0.00 | 81 | 1111.0 |
| 20260906061714 | 10 | 337 | 0.0 | 0.0 | 0.00 | 0.00 | 0.00 | 81 | 1111.0 |
| 20260906054212 | 9 | 135 | 0.0 | 0.0 | 0.00 | 0.00 | 0.00 | 85 | 1111.0 |
| 20260906053712 | 9 | 90 | 0.0 | 0.0 | 0.00 | 0.00 | 0.00 | 85 | 1111.0 |
| 20260906052712 | 8 | 180 | 0.0 | 0.0 | 0.00 | 0.00 | 0.00 | 86 | 1111.0 |
| 20260906052211 | 8 | 247 | 0.0 | 0.0 | 0.00 | 0.00 | 0.00 | 86 | 1111.0 |
| 20260906051211 | 8 | 90 | 0.0 | 0.0 | 0.00 | 0.00 | 0.00 | 85 | 1111.0 |
| 20260906050710 | 8 | 45 | 0.0 | 0.0 | 0.00 | 0.00 | 0.00 | 85 | 1111.0 |
| 20260906050210 | 8 | 135 | 0.0 | 1.6 | 0.00 | 0.00 | 0.00 | 85 | 1111.0 |
| 20260906045710 | 8 | 135 | 0.0 | 0.0 | 0.00 | 0.00 | 0.00 | 85 | 1111.0 |
| 20260906043710 | 8 | 337 | 0.0 | 0.0 | 0.00 | 0.00 | 0.00 | 84 | 1111.0 |
| 20260906043208 | 8 | 67 | 0.0 | 0.0 | 0.00 | 0.00 | 0.00 | 84 | 1111.0 |
| 20260906042708 | 8 | 202 | 0.0 | 0.0 | 0.00 | 0.00 | 0.00 | 83 | 1111.0 |
| 20260906042208 | 8 | 337 | 0.0 | 0.0 | 0.00 | 0.00 | 0.00 | 83 | 1111.0 |
| 20260906041209 | 8 | 157 | 0.0 | 0.0 | 0.00 | 0.00 | 0.00 | 82 | 1111.0 |
| 20260906040707 | 8 | 157 | 0.0 | 0.0 | 0.00 | 0.00 | 0.00 | 82 | 1111.0 |
| 20260906040207 | 8 | 45 | 0.0 | 0.0 | 0.00 | 0.00 | 0.00 | 81 | 1111.0 |
| 20260906035707 | 8 | 112 | 0.0 | 0.0 | 0.00 | 0.00 | 0.00 | 81 | 1111.0 |
| 20260906035206 | 8 | 337 | 0.0 | 0.0 | 0.00 | 0.00 | 0.00 | 81 | 1111.0 |
| 20260905070304 | 16 | 337 | 0.0 | 0.0 | 0.00 | 0.00 | 0.00 | 78 | 1111.0 |
| 20260905065804 | 16 | 337 | 0.0 | 0.0 | 0.00 | 0.00 | 0.00 | 78 | 1111.0 |
| 20260905065306 | 15 | 112 | 0.0 | 0.0 | 0.00 | 0.00 | 0.00 | 80 | 1111.0 |
| 20260905064804 | 15 | 337 | 0.0 | 0.0 | 0.00 | 0.00 | 0.00 | 81 | 1111.0 |
| 20260905064303 | 15 | 315 | 0.0 | 0.0 | 0.00 | 0.00 | 0.00 | 82 | 1111.0 |